Date String (YYYY-MM-DD hh:mm:ss) UTC,Instrument flags,Ambient pressure (hPa),Sample flow (lpm),Bypass flow (lpm),Sample temperature (°C),Ambient temperature (°C),ASC tube jacket temperature (°C),LED temperature (°C),Box temperature (°C),Sample RH (%),Span deviation,Mass concentration (μg/m³),Mass concentration (μg/m³),Mass concentration (μg/m³)
DateTimeUTC,F1_M11,P_M11,Q1_M11,Q2_M11,T1_M11,T2_M11,T3_M11,T4_M11,T5_M11,U1_M11,ZSPAN_M11,X0_M11,X2_M11,X1_M11
2022-04-25 06:00:00,,0833.0,5.01,0.00,22.8,22.1,00.0,31.8,24.6,09.5,0000.0,0010.15,0003.99,0003.20
2022-04-25 06:01:00,,0833.0,5.00,0.00,22.8,22.1,00.0,31.8,24.6,09.5,0000.0,0009.98,0003.96,0003.19
2022-04-25 06:02:00,,0833.0,4.99,0.00,22.8,22.1,00.0,31.8,24.6,09.5,0000.0,0009.93,0003.93,0003.18
2022-04-25 06:03:00,,0833.0,5.00,0.00,22.8,22.1,00.0,31.8,24.6,09.4,0000.0,0010.46,0003.88,0003.17
2022-04-25 06:04:00,,0833.0,5.01,0.00,22.8,22.1,00.0,31.8,24.6,09.4,0000.0,0010.30,0003.89,0003.16
2022-04-25 06:05:00,,0833.0,4.98,0.00,22.8,22.1,00.0,31.8,24.6,09.5,0000.0,0009.91,0003.89,0003.15
2022-04-25 06:06:00,,0833.1,5.01,0.00,22.8,22.1,00.0,31.8,24.6,09.5,0000.0,0009.70,0003.87,0003.15
2022-04-25 06:07:00,,0833.1,5.01,0.00,22.8,22.1,00.0,31.8,24.5,09.6,0000.0,0009.38,0003.83,0003.14
2022-04-25 06:08:00,,0833.1,4.99,0.00,22.8,22.1,00.0,31.8,24.5,09.6,0000.0,0008.45,0003.81,0003.14
2022-04-25 06:09:00,,0833.0,5.00,0.00,22.7,22.0,00.0,31.8,24.5,09.7,0000.0,0008.12,0003.80,0003.14
2022-04-25 06:10:00,,0833.0,5.00,0.00,22.7,22.0,00.0,31.8,24.5,09.7,0000.0,0007.84,0003.77,0003.13
2022-04-25 06:11:00,,0833.0,5.00,0.00,22.7,22.0,00.0,31.7,24.5,09.8,0000.0,0008.58,0003.77,0003.13
2022-04-25 06:12:00,,0833.0,4.99,0.00,22.7,22.0,00.0,31.7,24.5,09.8,0000.0,0009.34,0003.81,0003.13
2022-04-25 06:13:00,,0833.0,5.01,0.00,22.7,22.0,00.0,31.7,24.5,09.7,0000.0,0009.77,0003.79,0003.13
2022-04-25 06:14:00,,0833.1,5.01,0.00,22.7,22.0,00.0,31.7,24.5,09.8,0000.0,0009.41,0003.80,0003.13
2022-04-25 06:15:00,,0833.1,4.99,0.00,22.7,22.0,00.0,31.7,24.5,09.9,0000.0,0009.27,0003.78,0003.12
2022-04-25 06:16:00,,0833.1,5.01,0.00,22.7,22.0,00.0,31.7,24.5,09.9,0000.0,0009.33,0003.78,0003.12
2022-04-25 06:17:00,,0833.1,5.01,0.00,22.7,21.9,00.0,31.7,24.4,09.9,0000.0,0009.36,0003.79,0003.12
2022-04-25 06:18:00,,0833.0,5.01,0.00,22.7,21.9,00.0,31.7,24.4,09.9,0000.0,0009.56,0003.84,0003.13
2022-04-25 06:19:00,,0833.1,4.98,0.00,22.6,21.9,00.0,31.7,24.4,09.9,0000.0,0009.53,0003.83,0003.14
2022-04-25 06:20:00,,0833.0,5.01,0.00,22.6,21.8,00.0,31.7,24.4,09.9,0000.0,0009.83,0003.83,0003.14
2022-04-25 06:21:00,,0833.0,5.00,0.00,22.6,21.8,00.0,31.6,24.3,09.9,0000.0,0010.38,0003.87,0003.15
2022-04-25 06:22:00,,0833.0,5.00,0.00,22.6,21.9,00.0,31.6,24.3,10.0,0000.0,0010.00,0003.90,0003.15
2022-04-25 06:23:00,,0833.1,4.99,0.00,22.6,21.9,00.0,31.6,24.3,10.0,0000.0,0009.08,0003.91,0003.16
2022-04-25 06:24:00,,0833.0,5.01,0.00,22.6,21.9,00.0,31.6,24.3,10.0,0000.0,0008.76,0003.91,0003.17
2022-04-25 06:25:00,,0833.0,5.01,0.00,22.6,21.9,00.0,31.6,24.3,10.0,0000.0,0008.29,0003.89,0003.18
2022-04-25 06:26:00,,0833.1,5.00,0.00,22.6,21.9,00.0,31.6,24.3,10.1,0000.0,0008.22,0003.89,0003.18
2022-04-25 06:27:00,,0833.0,4.99,0.00,22.6,22.0,00.0,31.6,24.4,09.9,0000.0,0008.14,0003.87,0003.19
2022-04-25 06:28:00,,0833.1,5.01,0.00,22.6,22.0,00.0,31.6,24.4,09.8,0000.0,0008.14,0003.88,0003.20
2022-04-25 06:29:00,,0833.1,5.00,0.00,22.6,21.9,00.0,31.6,24.4,09.8,0000.0,0008.14,0003.87,0003.20
2022-04-25 06:30:00,,0833.0,4.99,0.00,22.6,21.9,00.0,31.6,24.3,09.8,0000.0,0008.06,0003.87,0003.20
2022-04-25 06:31:00,,0833.0,5.00,0.00,22.6,21.9,00.0,31.6,24.3,09.8,0000.0,0007.74,0003.85,0003.21
2022-04-25 06:32:00,,0833.1,5.01,0.00,22.5,21.8,00.0,31.5,24.3,09.8,0000.0,0006.87,0003.83,0003.21
2022-04-25 06:33:00,,0833.0,5.01,0.00,22.5,21.7,00.0,31.5,24.3,09.9,0000.0,0006.61,0003.78,0003.22
2022-04-25 06:34:00,,0833.1,5.00,0.00,22.5,21.7,00.0,31.5,24.2,09.9,0000.0,0006.52,0003.77,0003.22
2022-04-25 06:35:00,,0833.0,4.98,0.00,22.5,21.7,00.0,31.5,24.2,09.8,0000.0,0006.36,0003.75,0003.22
2022-04-25 06:36:00,,0833.1,5.01,0.00,22.5,21.7,00.0,31.5,24.2,09.8,0000.0,0006.13,0003.72,0003.23
2022-04-25 06:37:00,,0833.0,5.00,0.00,22.5,21.7,00.0,31.5,24.2,09.9,0000.0,0006.33,0003.74,0003.23
2022-04-25 06:38:00,,0833.0,5.00,0.00,22.4,21.7,00.0,31.5,24.2,09.9,0000.0,0006.66,0003.75,0003.24
2022-04-25 06:39:00,,0833.1,4.98,0.00,22.4,21.7,00.0,31.5,24.2,09.9,0000.0,0006.53,0003.73,0003.24
2022-04-25 06:40:00,,0833.1,5.01,0.00,22.4,21.7,00.0,31.5,24.2,10.0,0000.0,0007.21,0003.72,0003.25
2022-04-25 06:41:00,,0833.1,5.01,0.00,22.4,21.8,00.0,31.5,24.2,10.0,0000.0,0007.27,0003.71,0003.26
2022-04-25 06:42:00,,0833.1,4.99,0.00,22.4,21.8,00.0,31.4,24.3,09.9,0000.0,0007.40,0003.71,0003.27
2022-04-25 06:43:00,,0833.1,5.01,0.00,22.5,21.8,00.0,31.4,24.3,09.9,0000.0,0007.64,0003.72,0003.27
2022-04-25 06:44:00,,0833.1,5.01,0.00,22.4,21.8,00.0,31.4,24.3,09.9,0000.0,0008.00,0003.73,0003.27
2022-04-25 06:45:00,,0833.1,4.99,0.00,22.4,21.8,00.0,31.4,24.2,09.9,0000.0,0007.98,0003.72,0003.26
2022-04-25 06:46:00,,0833.1,5.01,0.00,22.4,21.7,00.0,31.4,24.2,09.9,0000.0,0007.94,0003.72,0003.27
2022-04-25 06:47:00,,0833.0,5.01,0.00,22.4,21.8,00.0,31.4,24.2,09.9,0000.0,0007.95,0003.73,0003.28
2022-04-25 06:48:00,,0833.0,4.98,0.00,22.4,21.8,00.0,31.4,24.2,10.0,0000.0,0007.83,0003.69,0003.27
2022-04-25 06:49:00,,0833.0,5.01,0.00,22.4,21.8,00.0,31.4,24.2,10.0,0000.0,0008.20,0003.69,0003.26
2022-04-25 06:50:00,,0833.0,5.01,0.00,22.4,21.8,00.0,31.4,24.2,10.0,0000.0,0008.27,0003.69,0003.25
2022-04-25 06:51:00,,0833.1,4.98,0.00,22.4,21.8,00.0,31.4,24.3,10.0,0000.0,0007.96,0003.68,0003.24
2022-04-25 06:52:00,,0833.1,5.01,0.00,22.5,21.9,00.0,31.4,24.3,10.0,0000.0,0008.72,0003.70,0003.23
2022-04-25 06:53:00,,0833.1,5.01,0.00,22.4,21.9,00.0,31.4,24.2,10.0,0000.0,0008.92,0003.71,0003.22
2022-04-25 06:54:00,,0833.0,4.98,0.00,22.4,21.9,00.0,31.4,24.2,10.0,0000.0,0008.93,0003.73,0003.22
2022-04-25 06:55:00,,0833.1,5.01,0.00,22.4,21.8,00.0,31.4,24.2,10.1,0000.0,0008.71,0003.76,0003.21
2022-04-25 06:56:00,,0833.0,5.00,0.00,22.4,21.8,00.0,31.4,24.2,10.1,0000.0,0008.81,0003.77,0003.20
2022-04-25 06:57:00,,0833.0,4.99,0.00,22.4,21.8,00.0,31.4,24.2,10.1,0000.0,0008.85,0003.76,0003.19
2022-04-25 06:58:00,,0833.0,5.00,0.00,22.4,21.8,00.0,31.4,24.3,10.1,0000.0,0008.90,0003.74,0003.18
2022-04-25 06:59:00,,0833.0,5.01,0.00,22.5,21.8,00.0,31.4,24.3,10.1,0000.0,0008.95,0003.76,0003.18
